Time,TemperatureF,DewpointF,PressureIn,WindDirection,WindDirectionDegrees,WindSpeedMPH,WindSpeedGustMPH,Humidity,HourlyPrecipIn,Conditions,Clouds,dailyrainin,SolarRadiationWatts/m^2,SoftwareType,DateUTC
2013-04-03 00:03:00,38.0,17.0,-100.00,NNW,330,5.0,9.0,42,0.00,,,0.00,0.000000,,2013-04-03 04:03:00,
2013-04-03 00:33:00,36.0,18.0,-100.00,NW,318,4.0,7.0,48,0.00,,,0.00,0.000000,,2013-04-03 04:33:00,
2013-04-03 00:43:00,36.0,18.0,-100.00,NW,318,4.0,7.0,48,0.00,,,0.00,0.000000,,2013-04-03 04:43:00,
2013-04-03 00:53:00,36.0,18.0,-100.00,NW,318,4.0,7.0,48,0.00,,,0.00,0.000000,,2013-04-03 04:53:00,
2013-04-03 01:03:00,36.0,18.0,-100.00,NW,318,4.0,7.0,48,0.00,,,0.00,0.000000,,2013-04-03 05:03:00,
2013-04-03 01:33:00,36.0,21.0,-100.00,NW,318,5.0,8.0,54,0.00,,,0.00,0.000000,,2013-04-03 05:33:00,
2013-04-03 01:42:00,36.0,21.0,-100.00,NW,318,5.0,8.0,54,0.00,,,0.00,0.000000,,2013-04-03 05:42:00,
2013-04-03 01:53:00,36.0,21.0,-100.00,NW,318,5.0,8.0,54,0.00,,,0.00,0.000000,,2013-04-03 05:53:00,
2013-04-03 02:03:00,36.0,21.0,-100.00,NW,318,5.0,8.0,54,0.00,,,0.00,0.000000,,2013-04-03 06:03:00,
2013-04-03 02:32:00,35.0,21.0,-100.00,NNW,330,4.0,9.0,57,0.00,,,0.00,0.000000,,2013-04-03 06:32:00,
2013-04-03 02:42:00,35.0,21.0,-100.00,NNW,330,4.0,9.0,57,0.00,,,0.00,0.000000,,2013-04-03 06:42:00,
2013-04-03 02:52:00,35.0,21.0,-100.00,NNW,330,4.0,9.0,57,0.00,,,0.00,0.000000,,2013-04-03 06:52:00,
2013-04-03 03:02:00,35.0,21.0,-100.00,NNW,330,4.0,9.0,57,0.00,,,0.00,0.000000,,2013-04-03 07:02:00,
2013-04-03 03:33:00,35.0,22.0,-100.00,NW,319,3.0,7.0,59,0.00,,,-99.99,0.000000,,2013-04-03 07:33:00,
2013-04-03 03:43:00,35.0,22.0,-100.00,NW,319,3.0,7.0,59,0.00,,,-99.99,0.000000,,2013-04-03 07:43:00,
2013-04-03 03:53:00,35.0,22.0,-100.00,NW,319,3.0,7.0,59,0.00,,,-99.99,0.000000,,2013-04-03 07:53:00,
2013-04-03 04:03:00,35.0,22.0,-100.00,NW,319,3.0,7.0,59,0.00,,,-99.99,0.000000,,2013-04-03 08:03:00,
2013-04-03 04:33:00,34.0,21.0,-100.00,NNW,340,5.0,6.0,59,0.00,,,0.00,0.000000,,2013-04-03 08:33:00,
2013-04-03 04:43:00,34.0,21.0,-100.00,NNW,340,5.0,6.0,59,0.00,,,0.00,0.000000,,2013-04-03 08:43:00,
2013-04-03 04:52:00,34.0,21.0,-100.00,NNW,340,5.0,6.0,59,0.00,,,0.00,0.000000,,2013-04-03 08:52:00,
2013-04-03 05:02:00,34.0,21.0,-100.00,NNW,340,5.0,6.0,59,0.00,,,0.00,0.000000,,2013-04-03 09:02:00,
2013-04-03 05:33:00,33.0,21.0,-100.00,North,357,4.0,7.0,61,0.00,,,0.00,0.000000,,2013-04-03 09:33:00,
2013-04-03 05:43:00,33.0,21.0,-100.00,North,357,4.0,7.0,61,0.00,,,0.00,0.000000,,2013-04-03 09:43:00,
2013-04-03 05:53:00,33.0,21.0,-100.00,North,357,4.0,7.0,61,0.00,,,0.00,0.000000,,2013-04-03 09:53:00,
2013-04-03 06:03:00,33.0,21.0,-100.00,North,357,4.0,7.0,61,0.00,,,0.00,0.000000,,2013-04-03 10:03:00,
2013-04-03 06:33:00,32.0,20.0,-100.00,SSW,204,2.0,6.0,62,0.00,,,0.00,0.000000,,2013-04-03 10:33:00,
2013-04-03 06:43:00,32.0,20.0,-100.00,SSW,204,2.0,6.0,62,0.00,,,0.00,0.000000,,2013-04-03 10:43:00,
2013-04-03 06:53:00,32.0,20.0,-100.00,SSW,204,2.0,6.0,62,0.00,,,0.00,0.000000,,2013-04-03 10:53:00,
2013-04-03 07:02:00,32.0,20.0,-100.00,SSW,204,2.0,6.0,62,0.00,,,0.00,0.000000,,2013-04-03 11:02:00,
2013-04-03 07:33:00,34.0,21.0,-100.00,NE,35,0.0,5.0,58,0.00,,,0.00,0.000000,,2013-04-03 11:33:00,
2013-04-03 07:42:00,34.0,21.0,-100.00,NE,35,0.0,5.0,58,0.00,,,0.00,0.000000,,2013-04-03 11:42:00,
2013-04-03 07:53:00,34.0,21.0,-100.00,NE,35,0.0,5.0,58,0.00,,,0.00,0.000000,,2013-04-03 11:53:00,
2013-04-03 08:02:00,34.0,21.0,-100.00,NE,35,0.0,5.0,58,0.00,,,0.00,0.000000,,2013-04-03 12:02:00,
2013-04-03 08:33:00,37.0,21.0,-100.00,South,175,3.0,5.0,53,0.00,,,-99.99,10.000000,,2013-04-03 12:33:00,
2013-04-03 08:42:00,37.0,21.0,-100.00,South,175,3.0,5.0,53,0.00,,,-99.99,10.000000,,2013-04-03 12:42:00,
2013-04-03 08:52:00,37.0,21.0,-100.00,South,175,3.0,5.0,53,0.00,,,-99.99,10.000000,,2013-04-03 12:52:00,
2013-04-03 09:02:00,37.0,21.0,-100.00,South,175,3.0,5.0,53,0.00,,,-99.99,10.000000,,2013-04-03 13:02:00,
2013-04-03 09:32:00,41.0,25.0,-100.00,South,178,2.0,5.0,53,0.00,,,0.00,97.000000,,2013-04-03 13:32:00,
2013-04-03 09:42:00,41.0,25.0,-100.00,South,178,2.0,5.0,53,0.00,,,0.00,97.000000,,2013-04-03 13:42:00,
2013-04-03 09:52:00,41.0,25.0,-100.00,South,178,2.0,5.0,53,0.00,,,0.00,97.000000,,2013-04-03 13:52:00,
2013-04-03 10:02:00,41.0,25.0,-100.00,South,178,2.0,5.0,53,0.00,,,0.00,97.000000,,2013-04-03 14:02:00,
2013-04-03 10:32:00,46.0,26.0,-100.00,SW,229,2.0,6.0,45,0.00,,,0.00,346.000000,,2013-04-03 14:32:00,
2013-04-03 10:43:00,46.0,26.0,-100.00,SW,229,2.0,6.0,45,0.00,,,0.00,346.000000,,2013-04-03 14:43:00,
2013-04-03 10:52:00,46.0,26.0,-100.00,SW,229,2.0,6.0,45,0.00,,,0.00,346.000000,,2013-04-03 14:52:00,
2013-04-03 11:02:00,46.0,26.0,-100.00,SW,229,2.0,6.0,45,0.00,,,0.00,346.000000,,2013-04-03 15:02:00,
2013-04-03 11:33:00,48.0,25.0,-100.00,SSW,209,5.0,7.0,40,0.00,,,0.00,492.000000,,2013-04-03 15:33:00,
2013-04-03 11:43:00,48.0,25.0,-100.00,SSW,209,5.0,7.0,40,0.00,,,0.00,492.000000,,2013-04-03 15:43:00,
2013-04-03 11:53:00,48.0,25.0,-100.00,SSW,209,5.0,7.0,40,0.00,,,0.00,492.000000,,2013-04-03 15:53:00,
2013-04-03 12:04:00,48.0,25.0,-100.00,SSW,209,5.0,7.0,40,0.00,,,0.00,492.000000,,2013-04-03 16:04:00,
2013-04-03 12:33:00,50.0,22.0,-100.00,SSW,203,5.0,9.0,33,0.00,,,0.00,722.000000,,2013-04-03 16:33:00,
2013-04-03 12:44:00,50.0,22.0,-100.00,SSW,203,5.0,9.0,33,0.00,,,0.00,722.000000,,2013-04-03 16:44:00,
2013-04-03 12:53:00,50.0,22.0,-100.00,SSW,203,5.0,9.0,33,0.00,,,0.00,722.000000,,2013-04-03 16:53:00,
2013-04-03 13:03:00,50.0,22.0,-100.00,SSW,203,5.0,9.0,33,0.00,,,0.00,722.000000,,2013-04-03 17:03:00,
2013-04-03 13:35:00,51.0,21.0,-100.00,SSE,151,4.0,7.0,30,0.00,,,0.00,535.000000,,2013-04-03 17:35:00,
2013-04-03 13:47:00,51.0,21.0,-100.00,SSE,151,4.0,7.0,30,0.00,,,0.00,535.000000,,2013-04-03 17:47:00,
2013-04-03 13:54:00,51.0,21.0,-100.00,SSE,151,4.0,7.0,30,0.00,,,0.00,535.000000,,2013-04-03 17:54:00,
2013-04-03 14:02:00,51.0,21.0,-100.00,SSE,151,4.0,7.0,30,0.00,,,0.00,535.000000,,2013-04-03 18:02:00,
2013-04-03 14:34:00,55.0,12.0,-100.00,West,269,4.0,10.0,18,0.00,,,0.00,817.000000,,2013-04-03 18:34:00,
2013-04-03 14:43:00,55.0,12.0,-100.00,West,269,4.0,10.0,18,0.00,,,0.00,817.000000,,2013-04-03 18:43:00,
2013-04-03 14:52:00,55.0,12.0,-100.00,West,269,4.0,10.0,18,0.00,,,0.00,817.000000,,2013-04-03 18:52:00,
2013-04-03 15:03:00,55.0,12.0,-100.00,West,269,4.0,10.0,18,0.00,,,0.00,817.000000,,2013-04-03 19:03:00,
2013-04-03 15:32:00,54.0,21.0,-100.00,SSW,212,4.0,7.0,27,0.00,,,0.00,654.000000,,2013-04-03 19:32:00,
2013-04-03 15:42:00,54.0,21.0,-100.00,SSW,212,4.0,7.0,27,0.00,,,0.00,654.000000,,2013-04-03 19:42:00,
2013-04-03 15:52:00,54.0,21.0,-100.00,SSW,212,4.0,7.0,27,0.00,,,0.00,654.000000,,2013-04-03 19:52:00,
2013-04-03 16:02:00,54.0,21.0,-100.00,SSW,212,4.0,7.0,27,0.00,,,0.00,654.000000,,2013-04-03 20:02:00,
2013-04-03 16:33:00,54.0,22.0,-100.00,SW,231,3.0,8.0,29,0.00,,,0.00,463.000000,,2013-04-03 20:33:00,
2013-04-03 16:42:00,54.0,22.0,-100.00,SW,231,3.0,8.0,29,0.00,,,0.00,463.000000,,2013-04-03 20:42:00,
2013-04-03 16:54:00,54.0,22.0,-100.00,SW,231,3.0,8.0,29,0.00,,,0.00,463.000000,,2013-04-03 20:54:00,
2013-04-03 17:03:00,54.0,22.0,-100.00,SW,231,3.0,8.0,29,0.00,,,0.00,463.000000,,2013-04-03 21:03:00,
2013-04-03 17:33:00,53.0,23.0,-100.00,South,190,4.0,6.0,31,0.00,,,-99.99,283.000000,,2013-04-03 21:33:00,
2013-04-03 17:42:00,53.0,23.0,-100.00,South,190,4.0,6.0,31,0.00,,,-99.99,283.000000,,2013-04-03 21:42:00,
2013-04-03 17:52:00,53.0,23.0,-100.00,South,190,4.0,6.0,31,0.00,,,-99.99,283.000000,,2013-04-03 21:52:00,
2013-04-03 18:02:00,53.0,23.0,-100.00,South,190,4.0,6.0,31,0.00,,,-99.99,283.000000,,2013-04-03 22:02:00,
2013-04-03 18:33:00,49.0,23.0,-100.00,South,179,4.0,6.0,35,0.00,,,0.00,179.000000,,2013-04-03 22:33:00,
2013-04-03 18:42:00,49.0,23.0,-100.00,South,179,4.0,6.0,35,0.00,,,0.00,179.000000,,2013-04-03 22:42:00,
2013-04-03 18:53:00,49.0,23.0,-100.00,South,179,4.0,6.0,35,0.00,,,0.00,179.000000,,2013-04-03 22:53:00,
2013-04-03 19:02:00,49.0,23.0,-100.00,South,179,4.0,6.0,35,0.00,,,0.00,179.000000,,2013-04-03 23:02:00,
2013-04-03 19:33:00,46.0,22.0,-100.00,South,189,4.0,6.0,39,0.00,,,0.00,82.000000,,2013-04-03 23:33:00,
2013-04-03 19:43:00,46.0,22.0,-100.00,South,189,4.0,6.0,39,0.00,,,0.00,82.000000,,2013-04-03 23:43:00,
2013-04-03 19:55:00,46.0,22.0,-100.00,South,189,4.0,6.0,39,0.00,,,0.00,82.000000,,2013-04-03 23:55:00,
2013-04-03 20:03:00,46.0,22.0,-100.00,South,189,4.0,6.0,39,0.00,,,0.00,82.000000,,2013-04-04 00:03:00,
2013-04-03 20:32:00,44.0,23.0,-100.00,SSE,164,5.0,10.0,43,0.00,,,0.00,11.000000,,2013-04-04 00:32:00,
2013-04-03 20:43:00,44.0,23.0,-100.00,SSE,164,5.0,10.0,43,0.00,,,0.00,11.000000,,2013-04-04 00:43:00,
2013-04-03 20:52:00,44.0,23.0,-100.00,SSE,164,5.0,10.0,43,0.00,,,0.00,11.000000,,2013-04-04 00:52:00,
2013-04-03 21:02:00,44.0,23.0,-100.00,SSE,164,5.0,10.0,43,0.00,,,0.00,11.000000,,2013-04-04 01:02:00,
2013-04-03 21:32:00,42.0,22.0,-100.00,South,172,7.0,11.0,44,0.00,,,0.00,0.000000,,2013-04-04 01:32:00,
2013-04-03 21:43:00,42.0,22.0,-100.00,South,172,7.0,11.0,44,0.00,,,0.00,0.000000,,2013-04-04 01:43:00,
2013-04-03 21:53:00,42.0,22.0,-100.00,South,172,7.0,11.0,44,0.00,,,0.00,0.000000,,2013-04-04 01:53:00,
2013-04-03 22:02:00,42.0,22.0,-100.00,South,172,7.0,11.0,44,0.00,,,0.00,0.000000,,2013-04-04 02:02:00,
2013-04-03 22:32:00,41.0,21.0,-100.00,South,183,7.0,13.0,45,0.00,,,0.00,0.000000,,2013-04-04 02:32:00,
2013-04-03 22:42:00,41.0,21.0,-100.00,South,183,7.0,13.0,45,0.00,,,0.00,0.000000,,2013-04-04 02:42:00,
2013-04-03 22:53:00,41.0,21.0,-100.00,South,183,7.0,13.0,45,0.00,,,0.00,0.000000,,2013-04-04 02:53:00,
2013-04-03 23:02:00,41.0,21.0,-100.00,South,183,7.0,13.0,45,0.00,,,0.00,0.000000,,2013-04-04 03:02:00,
2013-04-03 23:45:00,40.0,21.0,-100.00,South,179,7.0,11.0,47,0.00,,,0.00,0.000000,,2013-04-04 03:45:00,
2013-04-03 23:53:00,40.0,21.0,-100.00,South,179,7.0,11.0,47,0.00,,,0.00,0.000000,,2013-04-04 03:53:00,